Flight Track Log - Related Links

Times and Time Zones

All times are in EDT time to prevent confusion due to time zone crossing. See the XOJ793 flight status page for this flight to view local times or setup timezone preferences in your user account.

Time Position Orientation Groundspeed Altitude Reporting Facility
EDT Latitude Longitude Course Direction KTS MPH feet Rate Location/Type
12:14PM 34.4269 -119.8353 128° Southeast 158 182 700  Level Los Angeles Center
12:15PM 34.4103 -119.8092 128° Southeast 208 239 1,900 1,929 Climbing Los Angeles Center
12:15PM 34.3983 -119.7936 133° Southeast 210 242 2,500 2,182 Climbing Los Angeles Center
12:16PM 34.3422 -119.7583 153° Southeast 213 245 5,100 2,468 Climbing Los Angeles Center
12:17PM 34.2603 -119.7131 155° Southeast 258 297 7,600 1,920 Climbing Los Angeles Center
12:18PM 34.2561 -119.6233 93° East 280 322 9,100 1,440 Climbing Los Angeles Center
12:19PM 34.2700 -119.5311 80° East 280 322 10,600 871 Climbing Los Angeles Center
12:20PM 34.2825 -119.4356 81° East 281 323 10,900 194 Climbing Los Angeles Center
12:21PM 34.2967 -119.3325 81° East 298 343 11,000  Climbing Los Angeles Center
12:22PM 34.3117 -119.2400 79° East 283 326 10,900 -629 Descending Los Angeles Center
12:23PM 34.3244 -119.1339 82° East 267 307 9,700 -968 Descending Los Angeles Center
12:24PM 34.3350 -119.0514 81° East 247 284 8,900 -336 Descending Los Angeles Center
12:25PM 34.3458 -118.9619 82° East 268 308 9,000 48 Climbing Los Angeles Center
12:26PM 34.3528 -118.8622 85° East 297 342 9,000 -339 Level Los Angeles Center
12:27PM 34.3208 -118.7744 114° Southeast 285 328 8,300 -968 Descending Los Angeles Center
12:28PM 34.2919 -118.6922 113° Southeast 271 312 7,000 -629 Descending Los Angeles Center
12:29PM 34.2581 -118.5950 113° Southeast 263 303 7,000 -290 Level Los Angeles Center
12:30PM 34.2294 -118.5114 112° Southeast 264 304 6,400 -960 Descending Los Angeles Center
12:32PM 34.2042 -118.4300 111° Southeast 263 303 5,000 -672 Descending Los Angeles Center
12:33PM 34.1839 -118.3594 109° East 242 278 5,000 -439 Level Los Angeles Center
12:34PM 34.1333 -118.3167 145° Southeast 200 230 4,100 -645 Descending Southern California TRACON
12:35PM 34.1000 -118.3500 220° Southwest 165 190 3,700 -1,008 Descending Southern California TRACON
12:36PM 34.0661 -118.3858 221° Southwest 171 197 2,000 -1,313 Descending Los Angeles Center
12:37PM 34.0414 -118.4214 230° Southwest 154 177 900 -871 Descending Los Angeles Center
12:38PM 34.0150 -118.4547 226° Southwest 142 163 200 -689 Descending Los Angeles Center
12:40PM 34.0158 -118.4513 North  Level Estimated
12:47PM 34.0158 -118.4513 North  Level Estimated

Login

Don't have an account? Register now (free) for customized features, flight alerts, and more!